User: anonymous   Login
Location: Theydon Bois
(51.6750°N, 0.1050°E)
Time: 08:40:29
(UTC+01:00)
Language:

NOSS 2-1 (C) - Orbit

View from above orbital plane
View from above orbital plane
View from above satellite
View from above satellite

Ground track
Ground track

The orbit data is extracted from the following two-line orbital elements,

1 20691U 90050C   18143.09347894 0.00000250  00000-0  53769-4 0    07
2 20691  63.3324  32.5636 0820433  35.4528 324.5472 13.41807912    06
Epoch (UTC): 23 May 2018 02:14:36
Eccentricity: 0.0820433
inclination: 63.3324°
perigee height: 489 km
apogee height: 1716 km
right ascension of ascending node: 32.5636°
argument of perigee: 35.4528°
revolutions per day: 13.41807912
mean anomaly at epoch: 324.5472°
orbit number at epoch: 0

The dashed part of the orbit path shows where the satellite is in the earth's shadow,  

DLR